(270) Anahita
ephemeris date magn radius delta ra dec elong phase
Today5 Jul 202513.82.418 AU3.424 AU07h25m+20°56'7.0°2.9°
Opposition10 Mar 202612.02.514 AU1.523 AU11h19m+00°08'176.0°1.6°
(270) Anahita - 2025-07-05
astro.vanbuitenen.nl


 
-1 year
-1 month
-1 day
Now
+1 day
+1 month
+1 year

The interactive orbit chart above shows the body's path through the solar system and its position at the given date. Green and blue lines are shown perpendicular to the ecliptic plane: Green if the path is above the ecliptic plane, blue if it is below. (Left-click and drag to rotate the view; Right-click and drag to move the view; Use scroll wheel to zoom in our out.)

The orbital elements of Anahita are:

            e (Eccentricity)                : 0.1502829
            a (Semimajor axis)              : 2.1991322
            i (Inclination)                 : 2.36776
            Ω (Longitude of ascending node) : 254.29337
            ω (Argument of perihelion)      : 80.84530
            M (Mean anomaly)                : 106.51243
            Epoch                           : 2025 May 05

            L (Longitude of perihelion)     : 335.13098
            B (Latitude of perihelion)      : 2.33758
            P (Orbital period in years)     : 3.26            
        

The light curve chart below shows the estimated development of the minor planet's magnitude.


The all-sky chart below shows the path of the minor planet over the same period as the light curve. The current position is marked yellow.





The following chart shows the path of the minor planet in the next few days. The field of view is optimized for (~10x50) binoculars and finderscopes. A more printer-friendly version of the same chart can be found below.




Ephemerides:
Date       Time       RA (2000)    DEC (2000)    delta   radius  elong  phase   PA    magn
2025-07-05 00:00 UT   07 25 02.9   +20 56 59     3.424    2.418    7.0    2.9   107   13.8 
2025-07-05 19:31 UT   07 26 37.0   +20 53 29     3.426    2.419    6.6    2.8   107   13.8 
2025-07-06 00:00 UT   07 26 58.6   +20 52 41     3.426    2.419    6.5    2.7   108   13.8 
2025-07-07 00:00 UT   07 28 54.2   +20 48 17     3.429    2.420    6.0    2.5   109   13.7 
2025-07-08 00:00 UT   07 30 49.6   +20 43 49     3.431    2.421    5.5    2.3   110   13.7 
2025-07-09 00:00 UT   07 32 44.9   +20 39 15     3.433    2.422    5.0    2.1   111   13.7 
2025-07-10 00:00 UT   07 34 40.0   +20 34 37     3.436    2.424    4.5    1.9   113   13.7 
2025-07-11 00:00 UT   07 36 34.8   +20 29 54     3.438    2.425    4.1    1.7   115   13.7 
2025-07-12 00:00 UT   07 38 29.6   +20 25 06     3.440    2.426    3.6    1.5   117   13.7 
2025-07-13 00:00 UT   07 40 24.1   +20 20 13     3.441    2.427    3.1    1.3   120   13.7 
2025-07-14 00:00 UT   07 42 18.4   +20 15 15     3.443    2.428    2.7    1.1   124   13.7 
2025-07-15 00:00 UT   07 44 12.6   +20 10 13     3.445    2.429    2.2    0.9   130   13.6 
2025-07-16 00:00 UT   07 46 06.6   +20 05 05     3.446    2.430    1.8    0.8   138   13.6 
2025-07-17 00:00 UT   07 48 00.4   +19 59 54     3.447    2.432    1.4    0.6   150   13.6 
2025-07-18 00:00 UT   07 49 54.0   +19 54 37     3.449    2.433    1.2    0.5   170   13.6 
2025-07-19 00:00 UT   07 51 47.4   +19 49 16     3.450    2.434    1.1    0.5   195   13.6 
2025-07-20 00:00 UT   07 53 40.6   +19 43 50     3.451    2.435    1.3    0.5   218   13.6 
2025-07-21 00:00 UT   07 55 33.7   +19 38 20     3.452    2.436    1.6    0.7   235   13.6 
2025-07-22 00:00 UT   07 57 26.5   +19 32 45     3.452    2.437    1.9    0.8   246   13.6 
2025-07-23 00:00 UT   07 59 19.1   +19 27 06     3.453    2.438    2.4    1.0   253   13.7 


    Terminology:
            
    delta:  distance between minor planet and earth in AU
    radius: distance between minor planet and sun in AU
    magn:   magnitude (brightness) estimate    
    ra:     right ascension in hours (24h = 360deg)
    dec:    declination in degrees
    elong:  elongation in degrees (angle sun-earth-minor planet)    
    phase:  phase angle in degrees (angle sun-minor planet-earth)        
    AU:     Astronomical Unit (mean distance between earth and sun: 149597870.7 km
    

Orbital elements provided by the MPC (Minor Planet Center).
Calculations by a modified version of AAPlus, a C# implementation of the AA+ project by PJ Naughter from the algorithms presented in the book "Astronomical Algorithms" by Jean Meeus.
NGC2000 dso catalog and star labels from VizieR as provided by the Strasbourg astronomical Data Center.
Tycho2 catalog from the ESO archive.